When you browse on this site, cookies collect data to enhance your experience and personalize the content and advertising you see.
Visit our Privacy Policy to learn more. By continuing to use the site, you agree to this use of cookies and data.
  • In Lithuania
  • List of Countries
  • For 7 days
  • Water Temperature
  • Weather Map
  • Weather Widgets
  • user-avatar
    Login

    Hourly Weather Ondjiwa

    Today, 25 May, Monday

    Time Temperature Precipitation Wind Pressure Humidity
    00:00 +17°C° 0 mm 2 mps 668 mmHg 43%
    01:00 +17°C° 0 mm 2 mps 667 mmHg 45%
    02:00 +16°C° 0 mm 2 mps 667 mmHg 48%
    03:00 +15°C° 0 mm 2 mps 667 mmHg 52%
    04:00 +14°C° 0 mm 1 mps 667 mmHg 55%
    05:00 +15°C° 0 mm 1 mps 667 mmHg 55%
    06:00 +15°C° 0 mm 1 mps 668 mmHg 56%
    07:00 +15°C° 0 mm 1 mps 668 mmHg 57%
    08:00 +19°C° 0 mm 1 mps 669 mmHg 48%
    09:00 +23°C° 0 mm 2 mps 670 mmHg 40%
    10:00 +26°C° 0 mm 3 mps 670 mmHg 31%
    11:00 +28°C° 0 mm 3 mps 670 mmHg 29%
    12:00 +29°C° 0 mm 2 mps 669 mmHg 26%
    13:00 +31°C° 0 mm 2 mps 669 mmHg 24%
    14:00 +31°C° 0 mm 2 mps 668 mmHg 23%
    15:00 +31°C° 0 mm 2 mps 668 mmHg 23%
    16:00 +31°C° 0 mm 1 mps 667 mmHg 22%
    17:00 +28°C° 0 mm 1 mps 667 mmHg 27%
    18:00 +25°C° 0 mm 1 mps 667 mmHg 31%
    19:00 +23°C° 0 mm 1 mps 666 mmHg 36%
    20:00 +22°C° 0 mm 1 mps 666 mmHg 38%
    21:00 +20°C° 0 mm 2 mps 666 mmHg 40%
    22:00 +19°C° 0 mm 2 mps 667 mmHg 42%
    23:00 +18°C° 0 mm 2 mps 666 mmHg 44%

    Tomorrow, 26 May, Tuesday

    Time Temperature Precipitation Wind Pressure Humidity
    00:00 +18°C° 0 mm 2 mps 666 mmHg 47%
    01:00 +17°C° 0 mm 2 mps 666 mmHg 49%
    02:00 +16°C° 0 mm 2 mps 666 mmHg 50%
    03:00 +16°C° 0 mm 2 mps 666 mmHg 51%
    04:00 +15°C° 0 mm 2 mps 666 mmHg 52%
    05:00 +15°C° 0 mm 2 mps 667 mmHg 52%
    06:00 +15°C° 0 mm 2 mps 667 mmHg 52%
    07:00 +15°C° 0 mm 2 mps 667 mmHg 52%
    08:00 +18°C° 0 mm 2 mps 668 mmHg 44%
    09:00 +23°C° 0 mm 2 mps 669 mmHg 36%
    10:00 +26°C° 0 mm 2 mps 670 mmHg 28%
    11:00 +28°C° 0 mm 2 mps 669 mmHg 26%
    12:00 +30°C° 0 mm 1 mps 669 mmHg 24%
    13:00 +31°C° 0 mm 1 mps 669 mmHg 22%
    14:00 +31°C° 0 mm 1 mps 668 mmHg 21%
    15:00 +31°C° 0 mm 2 mps 668 mmHg 21%
    16:00 +30°C° 0 mm 2 mps 667 mmHg 20%
    17:00 +27°C° 0 mm 2 mps 667 mmHg 25%
    18:00 +25°C° 0 mm 2 mps 667 mmHg 30%
    19:00 +21°C° 0 mm 2 mps 666 mmHg 34%
    20:00 +20°C° 0 mm 2 mps 667 mmHg 35%
    21:00 +20°C° 0 mm 2 mps 667 mmHg 35%
    22:00 +19°C° 0 mm 2 mps 667 mmHg 36%
    23:00 +19°C° 0 mm 2 mps 667 mmHg 37%

    Day after tomorrow, 27 May, Wednesday

    Time Temperature Precipitation Wind Pressure Humidity
    00:00 +18°C° 0 mm 2 mps 667 mmHg 39%
    01:00 +18°C° 0 mm 1 mps 667 mmHg 40%
    02:00 +16°C° 0 mm 1 mps 666 mmHg 42%
    03:00 +16°C° 0 mm 1 mps 666 mmHg 44%
    04:00 +14°C° 0 mm 0 mps 666 mmHg 47%
    05:00 +14°C° 0 mm 0 mps 667 mmHg 47%
    06:00 +14°C° 0 mm 0 mps 667 mmHg 47%
    07:00 +14°C° 0 mm 0 mps 668 mmHg 47%
    08:00 +19°C° 0 mm 1 mps 669 mmHg 40%
    09:00 +21°C° 0 mm 2 mps 670 mmHg 34%
    10:00 +25°C° 0 mm 3 mps 671 mmHg 27%
    11:00 +27°C° 0 mm 3 mps 671 mmHg 25%
    12:00 +28°C° 0 mm 2 mps 670 mmHg 23%
    13:00 +30°C° 0 mm 2 mps 670 mmHg 20%
    14:00 +30°C° 0 mm 2 mps 669 mmHg 20%
    15:00 +30°C° 0 mm 1 mps 669 mmHg 21%
    16:00 +30°C° 0 mm 1 mps 669 mmHg 21%
    17:00 +28°C° 0 mm 1 mps 668 mmHg 25%
    18:00 +25°C° 0 mm 1 mps 668 mmHg 29%
    19:00 +22°C° 0 mm 1 mps 668 mmHg 34%
    20:00 +22°C° 0 mm 1 mps 668 mmHg 35%
    21:00 +20°C° 0 mm 2 mps 668 mmHg 37%
    22:00 +19°C° 0 mm 3 mps 669 mmHg 38%
    23:00 +18°C° 0 mm 2 mps 668 mmHg 40%

    28 May, Thursday

    Time Temperature Precipitation Wind Pressure Humidity
    00:00 +17°C° 0 mm 2 mps 668 mmHg 43%
    01:00 +16°C° 0 mm 2 mps 668 mmHg 46%
    02:00 +16°C° 0 mm 2 mps 668 mmHg 48%
    03:00 +15°C° 0 mm 2 mps 668 mmHg 50%
    04:00 +15°C° 0 mm 2 mps 668 mmHg 52%
    05:00 +15°C° 0 mm 1 mps 668 mmHg 53%
    06:00 +15°C° 0 mm 1 mps 669 mmHg 54%
    07:00 +15°C° 0 mm 1 mps 669 mmHg 55%
    08:00 +18°C° 0 mm 2 mps 670 mmHg 46%
    09:00 +21°C° 0 mm 2 mps 671 mmHg 38%
    10:00 +26°C° 0 mm 3 mps 672 mmHg 30%
    11:00 +28°C° 0 mm 2 mps 671 mmHg 27%
    12:00 +30°C° 0 mm 2 mps 671 mmHg 24%
    13:00 +31°C° 0 mm 2 mps 671 mmHg 22%
    14:00 +31°C° 0 mm 1 mps 670 mmHg 21%
    15:00 +31°C° 0 mm 1 mps 670 mmHg 21%
    16:00 +29°C° 0 mm 0 mps 669 mmHg 20%
    17:00 +28°C° 0 mm 1 mps 669 mmHg 24%
    18:00 +26°C° 0 mm 1 mps 669 mmHg 29%
    19:00 +23°C° 0 mm 2 mps 669 mmHg 33%
    20:00 +21°C° 0 mm 2 mps 669 mmHg 35%
    21:00 +20°C° 0 mm 2 mps 669 mmHg 37%
    22:00 +19°C° 0 mm 2 mps 669 mmHg 39%
    23:00 +19°C° 0 mm 2 mps 669 mmHg 40%

    29 May, Friday

    Time Temperature Precipitation Wind Pressure Humidity
    00:00 +18°C° 0 mm 3 mps 668 mmHg 41%
    01:00 +18°C° 0 mm 3 mps 668 mmHg 41%
    02:00 +17°C° 0 mm 2 mps 668 mmHg 42%
    03:00 +17°C° 0 mm 2 mps 668 mmHg 42%
    04:00 +16°C° 0 mm 2 mps 668 mmHg 42%
    05:00 +16°C° 0 mm 1 mps 668 mmHg 44%
    06:00 +16°C° 0 mm 1 mps 669 mmHg 45%
    07:00 +15°C° 0 mm 0 mps 669 mmHg 47%
    08:00 +20°C° 0 mm 1 mps 670 mmHg 38%
    09:00 +23°C° 0 mm 1 mps 671 mmHg 30%
    10:00 +26°C° 0 mm 2 mps 671 mmHg 22%
    11:00 +28°C° 0 mm 2 mps 671 mmHg 20%
    12:00 +30°C° 0 mm 2 mps 671 mmHg 19%
    13:00 +32°C° 0 mm 2 mps 670 mmHg 17%
    14:00 +32°C° 0 mm 1 mps 670 mmHg 16%
    15:00 +32°C° 0 mm 1 mps 669 mmHg 16%
    16:00 +31°C° 0 mm 1 mps 669 mmHg 16%
    17:00 +29°C° 0 mm 1 mps 669 mmHg 20%
    18:00 +26°C° 0 mm 1 mps 668 mmHg 23%
    19:00 +23°C° 0 mm 2 mps 668 mmHg 27%
    20:00 +21°C° 0 mm 2 mps 668 mmHg 28%
    21:00 +20°C° 0 mm 2 mps 668 mmHg 29%
    22:00 +19°C° 0 mm 2 mps 668 mmHg 31%
    23:00 +18°C° 0 mm 2 mps 668 mmHg 32%

    30 May, Saturday

    Time Temperature Precipitation Wind Pressure Humidity
    00:00 +18°C° 0 mm 2 mps 668 mmHg 33%
    01:00 +17°C° 0 mm 2 mps 668 mmHg 34%
    02:00 +16°C° 0 mm 2 mps 667 mmHg 34%
    03:00 +16°C° 0 mm 2 mps 667 mmHg 35%
    04:00 +15°C° 0 mm 2 mps 667 mmHg 35%
    05:00 +15°C° 0 mm 2 mps 668 mmHg 36%
    06:00 +14°C° 0 mm 2 mps 668 mmHg 37%
    07:00 +14°C° 0 mm 2 mps 669 mmHg 38%
    08:00 +18°C° 0 mm 2 mps 670 mmHg 32%
    09:00 +22°C° 0 mm 3 mps 670 mmHg 25%
    10:00 +27°C° 0 mm 3 mps 671 mmHg 18%
    11:00 +29°C° 0 mm 3 mps 671 mmHg 16%
    12:00 +32°C° 0 mm 4 mps 671 mmHg 14%
    13:00 +33°C° 0 mm 4 mps 671 mmHg 11%
    14:00 +33°C° 0 mm 3 mps 670 mmHg 12%
    15:00 +33°C° 0 mm 3 mps 670 mmHg 12%
    16:00 +33°C° 0 mm 3 mps 670 mmHg 12%
    17:00 +29°C° 0 mm 3 mps 669 mmHg 15%
    18:00 +26°C° 0 mm 2 mps 669 mmHg 18%
    19:00 +21°C° 0 mm 2 mps 669 mmHg 21%
    20:00 +20°C° 0 mm 2 mps 669 mmHg 22%
    21:00 +19°C° 0 mm 2 mps 669 mmHg 23%
    22:00 +19°C° 0 mm 2 mps 669 mmHg 24%
    23:00 +18°C° 0 mm 2 mps 669 mmHg 25%
    Show more